User: anonymous   Login
Location: Maiden
(35.5760°N, 81.2120°W)
Time: 07:03:19
(UTC-05:00)
Language:

Cosmos 2151 - Orbit

View from above orbital plane
View from above orbital plane
View from above satellite
View from above satellite

Ground track
Ground track

The orbit data is extracted from the following two-line orbital elements,

1 21422U 91042A   14326.80420623  .00001730  00000-0  17413-3 0   731
2 21422 082.5032 057.8961 0014935 177.8116 182.3171 14.90557630268786
Epoch (UTC): 22 November 2014 19:18:03
Eccentricity: 0.0014935
inclination: 82.5032°
perigee height: 586 km
apogee height: 606 km
right ascension of ascending node: 57.8961°
argument of perigee: 177.8116°
revolutions per day: 14.90557630
mean anomaly at epoch: 182.3171°
orbit number at epoch: 26878

The dashed part of the orbit path shows where the satellite is in the earth's shadow,  

DLR